UNISAT-6

Last updated on Thu Nov 21 2024 00:03:02 GMT+0000 (Coordinated Universal Time)

1 40012U 14033C 24325.41355962 .00006615 00000+0 81135-3 0 9997 2 40012 97.7189 121.8956 0050693 153.9901 206.3877 14.82510221560968
UTC large
Height (km)
Speed (km/s)
/
Latitude / Longitude
Inclination (degrees)
Orbital Period (minutes)
Azimuth
Elevation
Range (km)
Doppler Factor

Next 0 passes for location: London (51.5072 / 0.1276)

Sorry there are no passes over London.